Time,TemperatureF,DewpointF,PressureIn,WindDirection,WindDirectionDegrees,WindSpeedMPH,WindSpeedGustMPH,Humidity,HourlyPrecipIn,Conditions,Clouds,dailyrainin,SoftwareType,DateUTC
2013-10-09 00:02:00,40.6,37.6,30.34,WSW,248,1.2,2.0,89,0.00,,,0.00,WSDL version 440,2013-10-09 04:02:00,
2013-10-09 00:07:00,40.4,37.5,30.34,WSW,248,1.3,2.0,89,0.00,,,0.00,WSDL version 440,2013-10-09 04:07:00,
2013-10-09 00:12:00,40.3,37.6,30.35,WSW,248,0.0,1.6,90,0.00,,,0.00,WSDL version 440,2013-10-09 04:12:00,
2013-10-09 00:17:00,40.3,37.6,30.35,WSW,248,0.0,1.3,90,0.00,,,0.00,WSDL version 440,2013-10-09 04:17:00,
2013-10-09 00:22:00,40.2,37.5,30.35,WSW,248,0.0,0.0,90,0.00,,,0.00,WSDL version 440,2013-10-09 04:22:00,
2013-10-09 00:27:00,40.1,37.6,30.35,WSW,248,0.0,0.0,91,0.00,,,0.00,WSDL version 440,2013-10-09 04:27:00,
2013-10-09 00:32:00,40.0,37.6,30.35,WSW,248,0.0,0.0,91,0.00,,,0.00,WSDL version 440,2013-10-09 04:32:00,
2013-10-09 00:37:00,39.9,37.5,30.36,WSW,248,0.0,0.0,91,0.00,,,0.00,WSDL version 440,2013-10-09 04:37:00,
2013-10-09 00:42:00,39.9,37.7,30.35,WSW,248,0.0,0.0,92,0.00,,,0.00,WSDL version 440,2013-10-09 04:42:00,
2013-10-09 00:47:00,39.7,37.7,30.35,WSW,248,0.0,0.0,92,0.00,,,0.00,WSDL version 440,2013-10-09 04:47:00,
2013-10-09 00:52:00,39.7,37.5,30.35,WSW,248,0.0,0.0,91,0.00,,,0.00,WSDL version 440,2013-10-09 04:52:00,
2013-10-09 00:57:00,39.7,37.7,30.35,WSW,248,0.0,0.0,92,0.00,,,0.00,WSDL version 440,2013-10-09 04:57:00,
2013-10-09 01:02:00,39.6,37.5,30.35,WSW,248,0.0,0.0,92,0.00,,,0.00,WSDL version 440,2013-10-09 05:02:00,
2013-10-09 01:07:00,39.6,37.5,30.36,WSW,248,0.0,0.0,92,0.00,,,0.00,WSDL version 440,2013-10-09 05:07:00,
2013-10-09 01:12:00,39.6,37.5,30.36,WSW,248,0.0,0.0,92,0.00,,,0.00,WSDL version 440,2013-10-09 05:12:00,
2013-10-09 01:17:00,39.4,37.4,30.36,WSW,248,0.0,0.0,92,0.00,,,0.00,WSDL version 440,2013-10-09 05:17:00,
2013-10-09 01:22:00,39.4,37.6,30.36,WSW,248,0.0,0.0,93,0.00,,,0.00,WSDL version 440,2013-10-09 05:22:00,
2013-10-09 01:27:00,39.4,37.6,30.36,WSW,248,0.0,0.0,93,0.00,,,0.00,WSDL version 440,2013-10-09 05:27:00,
2013-10-09 01:32:00,39.4,37.6,30.36,WSW,248,0.0,0.0,93,0.00,,,0.00,WSDL version 440,2013-10-09 05:32:00,
2013-10-09 01:37:00,39.3,37.3,30.36,WSW,248,0.0,0.0,92,0.00,,,0.00,WSDL version 440,2013-10-09 05:37:00,
2013-10-09 01:42:00,39.2,37.1,30.36,WSW,248,0.0,0.0,92,0.00,,,0.00,WSDL version 440,2013-10-09 05:42:00,
2013-10-09 01:47:00,39.1,37.0,30.36,WSW,248,0.0,0.0,92,0.00,,,0.00,WSDL version 440,2013-10-09 05:47:00,
2013-10-09 01:52:00,38.9,36.8,30.36,WSW,248,0.0,0.0,92,0.00,,,0.00,WSDL version 440,2013-10-09 05:52:00,
2013-10-09 01:57:00,38.8,36.7,30.36,WSW,248,0.0,0.0,92,0.00,,,0.00,WSDL version 440,2013-10-09 05:57:00,
2013-10-09 02:02:00,38.7,36.6,30.36,WSW,248,0.0,0.0,92,0.00,,,0.00,WSDL version 440,2013-10-09 06:02:00,
2013-10-09 02:07:00,38.6,36.5,30.36,WSW,248,0.0,0.0,92,0.00,,,0.00,WSDL version 440,2013-10-09 06:07:00,
2013-10-09 02:12:00,38.4,36.4,30.36,WSW,248,0.0,0.0,92,0.00,,,0.00,WSDL version 440,2013-10-09 06:12:00,
2013-10-09 02:17:00,38.3,36.2,30.36,WSW,248,0.0,0.0,92,0.00,,,0.00,WSDL version 440,2013-10-09 06:17:00,
2013-10-09 02:22:00,38.2,36.1,30.37,WSW,248,0.0,0.0,92,0.00,,,0.00,WSDL version 440,2013-10-09 06:22:00,
2013-10-09 02:27:00,38.1,36.3,30.37,WSW,248,0.0,0.0,93,0.00,,,0.00,WSDL version 440,2013-10-09 06:27:00,
2013-10-09 02:32:00,38.1,36.4,30.37,WSW,248,0.0,0.0,93,0.00,,,0.00,WSDL version 440,2013-10-09 06:32:00,
2013-10-09 02:37:00,38.0,36.3,30.37,WSW,248,0.0,0.0,93,0.00,,,0.00,WSDL version 440,2013-10-09 06:37:00,
2013-10-09 02:42:00,37.9,36.2,30.37,WSW,248,0.0,0.0,93,0.00,,,0.00,WSDL version 440,2013-10-09 06:42:00,
2013-10-09 02:47:00,37.9,36.2,30.36,WSW,248,0.0,0.0,93,0.00,,,0.00,WSDL version 440,2013-10-09 06:47:00,
2013-10-09 02:52:00,37.9,36.1,30.36,WSW,248,0.0,0.0,93,0.00,,,0.00,WSDL version 440,2013-10-09 06:52:00,
2013-10-09 02:57:00,37.8,35.8,30.36,WSW,248,0.0,0.0,93,0.00,,,0.00,WSDL version 440,2013-10-09 06:57:00,
2013-10-09 03:02:00,37.6,35.5,30.36,WSW,248,0.0,0.0,92,0.00,,,0.00,WSDL version 440,2013-10-09 07:02:00,
2013-10-09 03:07:00,37.5,35.4,30.36,WSW,248,0.0,0.0,92,0.00,,,0.00,WSDL version 440,2013-10-09 07:07:00,
2013-10-09 03:12:00,37.4,35.3,30.36,WSW,248,0.0,0.0,92,0.00,,,0.00,WSDL version 440,2013-10-09 07:12:00,
2013-10-09 03:17:00,37.3,35.1,30.37,WSW,248,0.0,0.0,92,0.00,,,0.00,WSDL version 440,2013-10-09 07:17:00,
2013-10-09 03:22:00,37.1,34.9,30.37,WSW,248,0.0,0.0,92,0.00,,,0.00,WSDL version 440,2013-10-09 07:22:00,
2013-10-09 03:27:00,37.0,35.0,30.37,WSW,248,0.0,0.0,92,0.00,,,0.00,WSDL version 440,2013-10-09 07:27:00,
2013-10-09 03:32:00,37.0,35.0,30.37,WSW,248,0.0,0.0,92,0.00,,,0.00,WSDL version 440,2013-10-09 07:32:00,
2013-10-09 03:37:00,37.0,35.0,30.37,WSW,248,0.0,0.0,92,0.00,,,0.00,WSDL version 440,2013-10-09 07:37:00,
2013-10-09 03:42:00,37.0,35.3,30.37,WSW,248,0.0,0.0,93,0.00,,,0.00,WSDL version 440,2013-10-09 07:42:00,
2013-10-09 03:55:00,37.4,35.9,30.37,WSW,248,0.0,0.0,94,0.00,,,0.00,WSDL version 440,2013-10-09 07:55:00,
2013-10-09 04:00:00,37.5,36.2,30.37,WSW,248,0.0,0.0,95,0.00,,,0.00,WSDL version 440,2013-10-09 08:00:00,
2013-10-09 04:05:00,37.7,36.5,30.38,WSW,248,0.0,0.0,96,0.00,,,0.00,WSDL version 440,2013-10-09 08:05:00,
2013-10-09 04:10:00,37.8,36.8,30.38,WSW,248,0.0,0.0,96,0.00,,,0.00,WSDL version 440,2013-10-09 08:10:00,
2013-10-09 04:15:00,38.0,37.2,30.38,WSW,248,0.0,0.0,97,0.00,,,0.00,WSDL version 440,2013-10-09 08:15:00,
2013-10-09 04:20:00,38.1,37.4,30.38,WSW,248,0.0,0.0,97,0.00,,,0.00,WSDL version 440,2013-10-09 08:20:00,
2013-10-09 04:27:00,38.1,37.5,30.39,WSW,248,1.2,2.0,98,0.00,,,0.00,WSDL version 440,2013-10-09 08:27:00,
2013-10-09 04:32:00,38.1,37.5,30.39,WSW,248,1.0,1.6,98,0.00,,,0.00,WSDL version 440,2013-10-09 08:32:00,
2013-10-09 04:42:00,38.1,37.5,30.38,WSW,248,1.1,1.6,98,0.00,,,0.00,WSDL version 440,2013-10-09 08:42:00,
2013-10-09 04:47:00,38.0,37.2,30.39,WSW,248,0.0,1.6,97,0.00,,,0.00,WSDL version 440,2013-10-09 08:47:00,
2013-10-09 04:52:00,37.9,37.1,30.39,WSW,248,0.0,0.9,97,0.00,,,0.00,WSDL version 440,2013-10-09 08:52:00,
2013-10-09 04:57:00,37.9,37.1,30.39,WSW,248,0.0,0.0,97,0.00,,,0.00,WSDL version 440,2013-10-09 08:57:00,
2013-10-09 05:02:00,37.9,37.1,30.39,WSW,248,0.0,0.0,97,0.00,,,0.00,WSDL version 440,2013-10-09 09:02:00,
2013-10-09 05:07:00,37.9,37.1,30.40,WSW,248,0.0,0.0,97,0.00,,,0.00,WSDL version 440,2013-10-09 09:07:00,
2013-10-09 05:12:00,37.8,36.9,30.39,WSW,248,0.0,0.0,97,0.00,,,0.00,WSDL version 440,2013-10-09 09:12:00,
2013-10-09 05:17:00,37.8,36.9,30.40,WSW,248,0.0,0.0,97,0.00,,,0.00,WSDL version 440,2013-10-09 09:17:00,
2013-10-09 05:22:00,37.8,36.9,30.40,WSW,248,0.0,0.0,97,0.00,,,0.00,WSDL version 440,2013-10-09 09:22:00,
2013-10-09 05:27:00,37.8,36.9,30.40,WSW,248,0.0,0.0,97,0.00,,,0.00,WSDL version 440,2013-10-09 09:27:00,
2013-10-09 05:32:00,37.8,36.9,30.39,WSW,248,0.0,0.0,97,0.00,,,0.00,WSDL version 440,2013-10-09 09:32:00,
2013-10-09 05:37:00,37.8,36.9,30.40,WSW,248,0.0,0.0,97,0.00,,,0.00,WSDL version 440,2013-10-09 09:37:00,
2013-10-09 05:42:00,37.7,36.9,30.40,WSW,248,0.0,0.0,97,0.00,,,0.00,WSDL version 440,2013-10-09 09:42:00,
2013-10-09 05:47:00,37.6,36.7,30.40,WSW,248,0.0,0.0,97,0.00,,,0.00,WSDL version 440,2013-10-09 09:47:00,
2013-10-09 05:52:00,37.6,36.7,30.40,WSW,248,0.0,0.0,97,0.00,,,0.00,WSDL version 440,2013-10-09 09:52:00,
2013-10-09 05:57:00,37.6,36.8,30.40,WSW,248,0.0,0.0,97,0.00,,,0.00,WSDL version 440,2013-10-09 09:57:00,
2013-10-09 06:02:00,37.8,36.9,30.40,WSW,248,0.0,0.0,97,0.00,,,0.00,WSDL version 440,2013-10-09 10:02:00,
2013-10-09 06:07:00,37.8,36.9,30.40,WSW,248,0.0,0.0,97,0.00,,,0.00,WSDL version 440,2013-10-09 10:07:00,
2013-10-09 06:12:00,37.8,36.9,30.40,WSW,248,0.0,0.0,97,0.00,,,0.00,WSDL version 440,2013-10-09 10:12:00,
2013-10-09 06:17:00,37.8,36.9,30.40,WSW,248,0.0,0.0,97,0.00,,,0.00,WSDL version 440,2013-10-09 10:17:00,
2013-10-09 06:22:00,37.8,36.9,30.40,WSW,248,0.0,0.0,97,0.00,,,0.00,WSDL version 440,2013-10-09 10:22:00,
2013-10-09 06:27:00,37.9,37.0,30.40,WSW,248,0.0,0.0,97,0.00,,,0.00,WSDL version 440,2013-10-09 10:27:00,
2013-10-09 06:32:00,37.8,36.9,30.40,WSW,248,0.0,0.0,97,0.00,,,0.00,WSDL version 440,2013-10-09 10:32:00,
2013-10-09 06:37:00,37.8,36.9,30.41,WSW,248,0.0,0.0,97,0.00,,,0.00,WSDL version 440,2013-10-09 10:37:00,
2013-10-09 06:42:00,37.8,36.9,30.41,WSW,248,0.0,0.0,97,0.00,,,0.00,WSDL version 440,2013-10-09 10:42:00,
2013-10-09 06:47:00,37.6,36.7,30.41,WSW,248,0.0,0.0,97,0.00,,,0.00,WSDL version 440,2013-10-09 10:47:00,
2013-10-09 06:52:00,37.6,36.7,30.41,WSW,248,0.0,0.0,97,0.00,,,0.00,WSDL version 440,2013-10-09 10:52:00,
2013-10-09 06:57:00,37.6,36.7,30.41,WSW,248,0.0,0.0,97,0.00,,,0.00,WSDL version 440,2013-10-09 10:57:00,
2013-10-09 07:02:00,37.6,36.7,30.41,WSW,248,0.0,0.0,97,0.00,,,0.00,WSDL version 440,2013-10-09 11:02:00,
2013-10-09 07:07:00,37.8,36.9,30.41,WSW,248,0.0,0.0,97,0.00,,,0.00,WSDL version 440,2013-10-09 11:07:00,
2013-10-09 07:12:00,38.0,37.2,30.41,WSW,248,0.0,0.0,97,0.00,,,0.00,WSDL version 440,2013-10-09 11:12:00,
2013-10-09 07:17:00,38.2,37.4,30.42,WSW,248,0.0,0.0,97,0.00,,,0.00,WSDL version 440,2013-10-09 11:17:00,
2013-10-09 07:22:00,38.5,37.6,30.42,WSW,248,0.0,0.0,97,0.00,,,0.00,WSDL version 440,2013-10-09 11:22:00,
2013-10-09 07:27:00,38.7,37.8,30.42,WSW,248,0.0,0.0,97,0.00,,,0.00,WSDL version 440,2013-10-09 11:27:00,
2013-10-09 07:32:00,39.0,38.1,30.42,NE,45,0.0,0.0,97,0.00,,,0.00,WSDL version 440,2013-10-09 11:32:00,
2013-10-09 07:37:00,39.2,38.4,30.42,NE,45,0.0,0.0,97,0.00,,,0.00,WSDL version 440,2013-10-09 11:37:00,
2013-10-09 07:42:00,39.5,38.6,30.43,NNE,23,1.0,2.7,97,0.00,,,0.00,WSDL version 440,2013-10-09 11:42:00,
2013-10-09 07:47:00,40.0,39.1,30.43,NNE,23,1.1,2.7,97,0.00,,,0.00,WSDL version 440,2013-10-09 11:47:00,
2013-10-09 07:52:00,40.6,39.7,30.43,North,360,1.4,2.2,97,0.00,,,0.00,WSDL version 440,2013-10-09 11:52:00,
2013-10-09 07:57:00,41.1,40.3,30.43,NNE,23,2.0,2.5,97,0.00,,,0.00,WSDL version 440,2013-10-09 11:57:00,
2013-10-09 08:02:00,41.8,40.9,30.43,North,8,1.4,2.7,97,0.00,,,0.00,WSDL version 440,2013-10-09 12:02:00,
2013-10-09 08:07:00,42.3,41.4,30.43,NNE,23,1.5,2.7,97,0.00,,,0.00,WSDL version 440,2013-10-09 12:07:00,
2013-10-09 08:12:00,42.7,41.7,30.43,NNE,23,0.7,2.5,96,0.00,,,0.00,WSDL version 440,2013-10-09 12:12:00,
2013-10-09 08:17:00,43.3,41.8,30.43,NNE,23,1.0,2.5,94,0.00,,,0.00,WSDL version 440,2013-10-09 12:17:00,
2013-10-09 08:22:00,43.7,41.9,30.44,NNE,23,1.2,2.9,94,0.00,,,0.00,WSDL version 440,2013-10-09 12:22:00,
2013-10-09 08:27:00,44.1,42.2,30.43,NNE,23,2.4,3.6,93,0.00,,,0.00,WSDL version 440,2013-10-09 12:27:00,
2013-10-09 08:32:00,44.6,42.3,30.43,NNE,23,2.1,3.6,91,0.00,,,0.00,WSDL version 440,2013-10-09 12:32:00,
2013-10-09 08:37:00,45.0,42.3,30.43,NNE,23,1.6,3.6,90,0.00,,,0.00,WSDL version 440,2013-10-09 12:37:00,
2013-10-09 08:42:00,45.4,42.4,30.43,NNE,23,3.3,3.8,89,0.00,,,0.00,WSDL version 440,2013-10-09 12:42:00,
2013-10-09 08:47:00,45.8,42.3,30.43,NNE,25,3.0,4.0,87,0.00,,,0.00,WSDL version 440,2013-10-09 12:47:00,
2013-10-09 08:52:00,46.1,42.4,30.43,NNE,23,3.2,4.3,87,0.00,,,0.00,WSDL version 440,2013-10-09 12:52:00,
2013-10-09 08:57:00,46.4,42.1,30.43,NNE,23,3.2,4.3,85,0.00,,,0.00,WSDL version 440,2013-10-09 12:57:00,
2013-10-09 09:02:00,46.7,42.2,30.43,NNE,25,3.1,4.0,84,0.00,,,0.00,WSDL version 440,2013-10-09 13:02:00,
2013-10-09 09:07:00,46.9,42.1,30.43,NNE,23,3.1,5.4,83,0.00,,,0.00,WSDL version 440,2013-10-09 13:07:00,
2013-10-09 09:12:00,47.1,42.1,30.43,NE,35,4.0,5.4,82,0.00,,,0.00,WSDL version 440,2013-10-09 13:12:00,
2013-10-09 09:17:00,47.3,41.7,30.43,NNE,31,3.3,4.7,81,0.00,,,0.00,WSDL version 440,2013-10-09 13:17:00,
2013-10-09 09:22:00,47.4,41.9,30.43,NE,45,2.5,4.3,81,0.00,,,0.00,WSDL version 440,2013-10-09 13:22:00,
2013-10-09 09:27:00,47.8,42.6,30.43,NE,42,2.6,3.8,82,0.00,,,0.00,WSDL version 440,2013-10-09 13:27:00,
2013-10-09 09:34:00,48.4,42.8,30.43,NNE,23,2.8,4.9,81,0.00,,,0.00,WSDL version 440,2013-10-09 13:34:00,
2013-10-09 09:39:00,48.9,43.1,30.43,NE,34,1.6,4.9,80,0.00,,,0.00,WSDL version 440,2013-10-09 13:39:00,
2013-10-09 09:44:00,49.7,43.6,30.43,NNE,23,2.4,3.8,79,0.00,,,0.00,WSDL version 440,2013-10-09 13:44:00,
2013-10-09 09:49:00,50.6,43.9,30.43,NNE,23,1.8,3.8,78,0.00,,,0.00,WSDL version 440,2013-10-09 13:49:00,
2013-10-09 09:54:00,51.1,43.5,30.43,NNE,23,1.6,2.9,75,0.00,,,0.00,WSDL version 440,2013-10-09 13:54:00,
2013-10-09 09:59:00,51.4,43.8,30.43,NNE,23,1.6,2.9,75,0.00,,,0.00,WSDL version 440,2013-10-09 13:59:00,
2013-10-09 10:04:00,51.6,43.1,30.43,NNE,23,2.8,4.3,73,0.00,,,0.00,WSDL version 440,2013-10-09 14:04:00,
2013-10-09 10:09:00,51.9,42.8,30.43,NNE,23,2.3,4.3,71,0.00,,,0.00,WSDL version 440,2013-10-09 14:09:00,
2013-10-09 10:14:00,52.0,42.8,30.43,North,357,2.5,3.6,71,0.00,,,0.00,WSDL version 440,2013-10-09 14:14:00,
2013-10-09 10:19:00,52.2,42.6,30.43,NNE,15,2.7,3.6,70,0.00,,,0.00,WSDL version 440,2013-10-09 14:19:00,
2013-10-09 10:24:00,52.3,42.3,30.43,NNE,20,2.7,3.8,69,0.00,,,0.00,WSDL version 440,2013-10-09 14:24:00,
2013-10-09 10:29:00,52.5,42.2,30.42,NNE,20,2.2,3.8,68,0.00,,,0.00,WSDL version 440,2013-10-09 14:29:00,
2013-10-09 10:34:00,52.7,42.3,30.43,NNE,23,3.2,4.0,68,0.00,,,0.00,WSDL version 440,2013-10-09 14:34:00,
2013-10-09 10:39:00,52.9,42.1,30.42,NNE,23,2.6,4.3,67,0.00,,,0.00,WSDL version 440,2013-10-09 14:39:00,
2013-10-09 10:44:00,53.1,42.3,30.42,NNE,13,2.8,4.5,67,0.00,,,0.00,WSDL version 440,2013-10-09 14:44:00,
2013-10-09 10:49:00,53.2,42.4,30.42,NNE,23,2.4,4.5,67,0.00,,,0.00,WSDL version 440,2013-10-09 14:49:00,
2013-10-09 10:54:00,53.3,42.2,30.42,NNE,25,3.2,4.0,66,0.00,,,0.00,WSDL version 440,2013-10-09 14:54:00,
2013-10-09 10:59:00,53.6,42.1,30.42,NNE,23,2.9,4.0,65,0.00,,,0.00,WSDL version 440,2013-10-09 14:59:00,
2013-10-09 11:04:00,53.9,41.9,30.42,NNE,23,3.0,4.0,64,0.00,,,0.00,WSDL version 440,2013-10-09 15:04:00,
2013-10-09 11:09:00,54.2,41.9,30.42,NNE,30,3.5,4.0,63,0.00,,,0.00,WSDL version 440,2013-10-09 15:09:00,
2013-10-09 11:14:00,54.4,42.0,30.41,NNE,23,2.4,4.0,63,0.00,,,0.00,WSDL version 440,2013-10-09 15:14:00,
2013-10-09 11:19:00,54.6,41.9,30.41,NNE,25,3.2,4.3,62,0.00,,,0.00,WSDL version 440,2013-10-09 15:19:00,
2013-10-09 11:24:00,54.8,41.3,30.41,NE,45,2.5,4.5,60,0.00,,,0.00,WSDL version 440,2013-10-09 15:24:00,
2013-10-09 11:29:00,55.0,41.1,30.41,NE,45,2.8,4.7,59,0.00,,,0.00,WSDL version 440,2013-10-09 15:29:00,
2013-10-09 11:35:00,55.2,41.5,30.41,NNE,28,1.1,3.6,60,0.00,,,0.00,WSDL version 440,2013-10-09 15:35:00,
2013-10-09 11:40:00,55.3,41.0,30.41,NE,39,2.0,3.6,59,0.00,,,0.00,WSDL version 440,2013-10-09 15:40:00,
2013-10-09 11:45:00,55.6,41.1,30.41,NE,45,0.0,3.1,58,0.00,,,0.00,WSDL version 440,2013-10-09 15:45:00,
2013-10-09 11:50:00,55.9,40.9,30.41,NNE,23,0.7,2.9,57,0.00,,,0.00,WSDL version 440,2013-10-09 15:50:00,
2013-10-09 11:55:00,56.0,40.5,30.41,NE,35,2.0,2.9,56,0.00,,,0.00,WSDL version 440,2013-10-09 15:55:00,
2013-10-09 12:00:00,56.0,40.7,30.40,ENE,60,1.6,2.9,56,0.00,,,0.00,WSDL version 440,2013-10-09 16:00:00,
2013-10-09 12:05:00,56.1,40.5,30.40,NE,45,2.0,3.8,56,0.00,,,0.00,WSDL version 440,2013-10-09 16:05:00,
2013-10-09 12:10:00,56.2,40.5,30.40,NNE,28,3.0,3.8,55,0.00,,,0.00,WSDL version 440,2013-10-09 16:10:00,
2013-10-09 12:15:00,56.4,40.6,30.40,NE,34,2.0,3.6,55,0.00,,,0.00,WSDL version 440,2013-10-09 16:15:00,
2013-10-09 12:20:00,56.6,40.3,30.40,NE,40,2.5,3.1,54,0.00,,,0.00,WSDL version 440,2013-10-09 16:20:00,
2013-10-09 12:25:00,56.8,40.6,30.40,NE,42,2.0,5.4,55,0.00,,,0.00,WSDL version 440,2013-10-09 16:25:00,
2013-10-09 12:30:00,56.8,40.5,30.40,NE,45,2.7,5.6,54,0.00,,,0.00,WSDL version 440,2013-10-09 16:30:00,
2013-10-09 12:35:00,56.8,40.1,30.39,NE,45,3.0,5.6,53,0.00,,,0.00,WSDL version 440,2013-10-09 16:35:00,
2013-10-09 12:40:00,57.0,40.2,30.39,NE,45,2.7,3.8,53,0.00,,,0.00,WSDL version 440,2013-10-09 16:40:00,
2013-10-09 12:45:00,57.2,40.8,30.39,NE,35,2.7,3.6,54,0.00,,,0.00,WSDL version 440,2013-10-09 16:45:00,
2013-10-09 12:50:00,57.2,40.3,30.39,NE,45,2.3,3.6,53,0.00,,,0.00,WSDL version 440,2013-10-09 16:50:00,
2013-10-09 12:58:00,57.4,40.4,30.39,NE,45,3.4,4.3,53,0.00,,,0.00,WSDL version 440,2013-10-09 16:58:00,
2013-10-09 13:03:00,57.4,40.1,30.39,NNE,23,0.5,4.3,52,0.00,,,0.00,WSDL version 440,2013-10-09 17:03:00,
2013-10-09 13:08:00,57.7,40.7,30.38,NNE,23,1.6,4.0,53,0.00,,,0.00,WSDL version 440,2013-10-09 17:08:00,
2013-10-09 13:13:00,57.7,40.4,30.38,NE,35,2.5,3.6,52,0.00,,,0.00,WSDL version 440,2013-10-09 17:13:00,
2013-10-09 13:18:00,57.9,40.8,30.38,North,6,0.4,3.6,53,0.00,,,0.00,WSDL version 440,2013-10-09 17:18:00,
2013-10-09 13:23:00,58.0,41.0,30.38,NNE,23,0.0,2.5,53,0.00,,,0.00,WSDL version 440,2013-10-09 17:23:00,
2013-10-09 13:28:00,58.1,40.5,30.38,WSW,248,1.0,2.0,52,0.00,,,0.00,WSDL version 440,2013-10-09 17:28:00,
2013-10-09 13:33:00,58.4,41.0,30.38,WSW,248,0.0,2.0,52,0.00,,,0.00,WSDL version 440,2013-10-09 17:33:00,
2013-10-09 13:38:00,58.8,41.2,30.38,SE,140,0.0,2.0,52,0.00,,,0.00,WSDL version 440,2013-10-09 17:38:00,
2013-10-09 13:43:00,59.0,40.2,30.38,ENE,68,0.5,2.0,50,0.00,,,0.00,WSDL version 440,2013-10-09 17:43:00,
2013-10-09 13:48:00,59.1,39.5,30.38,NE,45,0.4,2.0,48,0.00,,,0.00,WSDL version 440,2013-10-09 17:48:00,
2013-10-09 13:53:00,59.2,39.3,30.37,SE,124,0.4,2.2,48,0.00,,,0.00,WSDL version 440,2013-10-09 17:53:00,
2013-10-09 13:58:00,59.4,39.7,30.38,SSW,203,1.1,2.2,48,0.00,,,0.00,WSDL version 440,2013-10-09 17:58:00,
2013-10-09 14:03:00,59.5,40.0,30.38,East,90,0.0,2.0,48,0.00,,,0.00,WSDL version 440,2013-10-09 18:03:00,
2013-10-09 14:08:00,59.5,40.2,30.37,East,90,0.0,2.0,49,0.00,,,0.00,WSDL version 440,2013-10-09 18:08:00,
2013-10-09 14:13:00,59.5,40.3,30.37,North,350,0.5,2.0,49,0.00,,,0.00,WSDL version 440,2013-10-09 18:13:00,
2013-10-09 14:18:00,59.4,40.2,30.37,East,87,0.6,4.0,49,0.00,,,0.00,WSDL version 440,2013-10-09 18:18:00,
2013-10-09 14:23:00,59.4,40.6,30.37,South,188,0.5,4.0,50,0.00,,,0.00,WSDL version 440,2013-10-09 18:23:00,
2013-10-09 14:28:00,59.5,40.5,30.37,North,357,0.5,2.7,49,0.00,,,0.00,WSDL version 440,2013-10-09 18:28:00,
2013-10-09 14:33:00,59.5,40.5,30.36,WSW,241,0.6,3.1,49,0.00,,,0.00,WSDL version 440,2013-10-09 18:33:00,
2013-10-09 14:38:00,59.5,40.4,30.36,South,180,0.0,3.1,49,0.00,,,0.00,WSDL version 440,2013-10-09 18:38:00,
2013-10-09 14:43:00,59.5,40.9,30.36,SSW,203,0.3,1.6,50,0.00,,,0.00,WSDL version 440,2013-10-09 18:43:00,
2013-10-09 14:48:00,59.7,40.4,30.36,WSW,248,1.4,2.0,49,0.00,,,0.00,WSDL version 440,2013-10-09 18:48:00,
2013-10-09 14:53:00,59.9,40.2,30.36,ESE,113,1.0,2.0,48,0.00,,,0.00,WSDL version 440,2013-10-09 18:53:00,
2013-10-09 14:58:00,59.9,39.8,30.35,WSW,248,0.0,2.0,47,0.00,,,0.00,WSDL version 440,2013-10-09 18:58:00,
2013-10-09 15:03:00,59.7,40.0,30.36,WSW,248,0.0,2.0,48,0.00,,,0.00,WSDL version 440,2013-10-09 19:03:00,
2013-10-09 15:08:00,59.7,40.6,30.36,West,264,0.0,2.0,49,0.00,,,0.00,WSDL version 440,2013-10-09 19:08:00,
2013-10-09 15:13:00,59.5,40.7,30.35,NE,45,1.3,2.2,50,0.00,,,0.00,WSDL version 440,2013-10-09 19:13:00,
2013-10-09 15:18:00,59.5,41.0,30.35,NE,45,0.0,2.2,50,0.00,,,0.00,WSDL version 440,2013-10-09 19:18:00,
2013-10-09 15:23:00,59.4,40.1,30.35,NNE,32,2.3,4.9,49,0.00,,,0.00,WSDL version 440,2013-10-09 19:23:00,
2013-10-09 15:28:00,59.4,39.7,30.35,North,8,1.1,4.9,48,0.00,,,0.00,WSDL version 440,2013-10-09 19:28:00,
2013-10-09 15:33:00,59.4,39.3,30.35,NNE,33,2.2,6.0,47,0.00,,,0.00,WSDL version 440,2013-10-09 19:33:00,
2013-10-09 15:38:00,59.3,39.9,30.34,NE,34,0.7,6.0,49,0.00,,,0.00,WSDL version 440,2013-10-09 19:38:00,
2013-10-09 15:43:00,59.2,39.6,30.34,North,357,0.4,3.4,48,0.00,,,0.00,WSDL version 440,2013-10-09 19:43:00,
2013-10-09 15:48:00,59.2,39.5,30.34,NE,51,0.0,3.4,48,0.00,,,0.00,WSDL version 440,2013-10-09 19:48:00,
2013-10-09 15:53:00,59.2,39.7,30.34,ENE,68,0.6,2.7,48,0.00,,,0.00,WSDL version 440,2013-10-09 19:53:00,
2013-10-09 16:00:00,59.0,40.5,30.33,NW,307,0.6,2.7,50,0.00,,,0.00,WSDL version 440,2013-10-09 20:00:00,
2013-10-09 16:05:00,58.9,41.4,30.34,WSW,248,0.0,2.0,52,0.00,,,0.00,WSDL version 440,2013-10-09 20:05:00,
2013-10-09 16:10:00,58.6,41.7,30.34,West,281,0.0,0.0,53,0.00,,,0.00,WSDL version 440,2013-10-09 20:10:00,
2013-10-09 16:15:00,58.3,40.7,30.34,NNE,23,0.0,0.0,52,0.00,,,0.00,WSDL version 440,2013-10-09 20:15:00,
2013-10-09 16:20:00,58.2,41.3,30.34,SW,225,0.0,0.0,53,0.00,,,0.00,WSDL version 440,2013-10-09 20:20:00,
2013-10-09 16:25:00,57.9,41.4,30.34,SW,225,0.0,0.0,54,0.00,,,0.00,WSDL version 440,2013-10-09 20:25:00,
2013-10-09 16:30:00,57.5,41.2,30.34,SW,225,0.0,0.0,55,0.00,,,0.00,WSDL version 440,2013-10-09 20:30:00,
2013-10-09 16:35:00,57.1,42.4,30.33,SW,225,0.0,0.0,58,0.00,,,0.00,WSDL version 440,2013-10-09 20:35:00,
2013-10-09 16:40:00,56.7,42.5,30.34,SW,225,0.0,0.0,59,0.00,,,0.00,WSDL version 440,2013-10-09 20:40:00,
2013-10-09 16:45:00,56.3,41.8,30.34,SW,225,0.0,0.0,58,0.00,,,0.00,WSDL version 440,2013-10-09 20:45:00,
2013-10-09 16:50:00,55.9,42.5,30.34,SW,225,0.0,0.0,61,0.00,,,0.00,WSDL version 440,2013-10-09 20:50:00,
2013-10-09 16:55:00,55.6,42.9,30.33,SW,225,0.0,0.0,62,0.00,,,0.00,WSDL version 440,2013-10-09 20:55:00,
2013-10-09 17:00:00,55.2,43.3,30.33,SW,225,0.0,0.0,64,0.00,,,0.00,WSDL version 440,2013-10-09 21:00:00,
2013-10-09 17:05:00,54.7,43.8,30.34,SW,225,0.0,0.0,67,0.00,,,0.00,WSDL version 440,2013-10-09 21:05:00,
2013-10-09 17:10:00,54.4,43.7,30.34,SW,225,0.0,0.0,67,0.00,,,0.00,WSDL version 440,2013-10-09 21:10:00,
2013-10-09 17:15:00,54.1,43.6,30.34,SW,225,0.0,0.0,68,0.00,,,0.00,WSDL version 440,2013-10-09 21:15:00,
2013-10-09 17:20:00,53.6,43.8,30.34,SW,225,0.0,0.0,69,0.00,,,0.00,WSDL version 440,2013-10-09 21:20:00,
2013-10-09 17:26:00,53.2,43.7,30.34,SW,225,0.0,0.0,70,0.00,,,0.00,WSDL version 440,2013-10-09 21:26:00,
2013-10-09 17:31:00,52.9,42.9,30.34,SW,225,0.0,0.0,69,0.00,,,0.00,WSDL version 440,2013-10-09 21:31:00,
2013-10-09 17:36:00,52.6,42.7,30.34,SW,225,0.8,1.6,69,0.00,,,0.00,WSDL version 440,2013-10-09 21:36:00,
2013-10-09 17:41:00,52.2,42.5,30.34,SW,225,0.0,1.6,69,0.00,,,0.00,WSDL version 440,2013-10-09 21:41:00,
2013-10-09 17:46:00,52.0,43.1,30.34,SW,225,1.3,2.5,72,0.00,,,0.00,WSDL version 440,2013-10-09 21:46:00,
2013-10-09 17:52:00,52.0,43.1,30.34,SSW,203,0.0,2.5,72,0.00,,,0.00,WSDL version 440,2013-10-09 21:52:00,
2013-10-09 18:01:00,52.2,43.6,30.34,SSW,203,0.0,0.0,73,0.00,,,0.00,WSDL version 440,2013-10-09 22:01:00,
2013-10-09 18:06:00,52.0,43.6,30.34,SSW,203,0.0,0.0,73,0.00,,,0.00,WSDL version 440,2013-10-09 22:06:00,
2013-10-09 18:11:00,51.8,43.6,30.34,SSW,203,0.0,0.0,73,0.00,,,0.00,WSDL version 440,2013-10-09 22:11:00,
2013-10-09 18:18:00,51.5,43.5,30.35,SSW,203,0.0,0.0,74,0.00,,,0.00,WSDL version 440,2013-10-09 22:18:00,
2013-10-09 18:23:00,51.2,43.2,30.35,SSW,203,0.0,0.0,74,0.00,,,0.00,WSDL version 440,2013-10-09 22:23:00,
2013-10-09 18:28:00,51.0,43.0,30.35,SSW,203,0.0,0.0,74,0.00,,,0.00,WSDL version 440,2013-10-09 22:28:00,
2013-10-09 18:33:00,50.7,42.8,30.35,SSW,203,0.0,0.0,74,0.00,,,0.00,WSDL version 440,2013-10-09 22:33:00,
2013-10-09 18:38:00,50.4,42.7,30.35,SSW,203,0.0,0.0,75,0.00,,,0.00,WSDL version 440,2013-10-09 22:38:00,
2013-10-09 18:43:00,50.2,42.5,30.35,SSW,203,0.0,0.0,75,0.00,,,0.00,WSDL version 440,2013-10-09 22:43:00,
2013-10-09 18:50:00,49.9,42.5,30.35,SSW,203,0.0,0.0,76,0.00,,,0.00,WSDL version 440,2013-10-09 22:50:00,
2013-10-09 18:55:00,49.5,42.3,30.35,SSE,168,0.0,0.0,76,0.00,,,0.00,WSDL version 440,2013-10-09 22:55:00,
2013-10-09 19:00:00,49.4,42.3,30.35,SSE,158,0.0,0.0,76,0.00,,,0.00,WSDL version 440,2013-10-09 23:00:00,
2013-10-09 19:05:00,49.2,42.3,30.35,SSE,158,0.0,0.0,77,0.00,,,0.00,WSDL version 440,2013-10-09 23:05:00,
2013-10-09 19:10:00,49.0,42.1,30.35,SSE,152,0.0,0.0,77,0.00,,,0.00,WSDL version 440,2013-10-09 23:10:00,
2013-10-09 19:15:00,48.9,42.3,30.35,SE,135,0.0,0.0,78,0.00,,,0.00,WSDL version 440,2013-10-09 23:15:00,
2013-10-09 19:20:00,48.7,42.2,30.35,SE,135,0.0,0.0,78,0.00,,,0.00,WSDL version 440,2013-10-09 23:20:00,
2013-10-09 19:25:00,48.6,42.1,30.35,SE,135,0.0,0.0,78,0.00,,,0.00,WSDL version 440,2013-10-09 23:25:00,
2013-10-09 19:30:00,48.4,41.9,30.35,SE,135,0.0,0.0,78,0.00,,,0.00,WSDL version 440,2013-10-09 23:30:00,
2013-10-09 19:35:00,48.3,41.8,30.35,SE,135,0.0,0.0,78,0.00,,,0.00,WSDL version 440,2013-10-09 23:35:00,
2013-10-09 19:40:00,48.2,42.0,30.35,SE,135,0.0,0.0,79,0.00,,,0.00,WSDL version 440,2013-10-09 23:40:00,
2013-10-09 19:45:00,48.0,42.2,30.34,SE,135,0.0,0.0,80,0.00,,,0.00,WSDL version 440,2013-10-09 23:45:00,
2013-10-09 19:50:00,48.0,42.2,30.34,SE,135,0.0,0.0,80,0.00,,,0.00,WSDL version 440,2013-10-09 23:50:00,
2013-10-09 19:55:00,48.0,42.2,30.34,SE,135,0.0,0.0,80,0.00,,,0.00,WSDL version 440,2013-10-09 23:55:00,
2013-10-09 20:00:00,47.8,42.2,30.34,SE,135,0.0,0.0,81,0.00,,,0.00,WSDL version 440,2013-10-10 00:00:00,
2013-10-09 20:05:00,47.8,42.0,30.34,SE,135,0.0,0.0,80,0.00,,,0.00,WSDL version 440,2013-10-10 00:05:00,
2013-10-09 20:10:00,47.8,41.9,30.34,SE,135,0.5,1.6,80,0.00,,,0.00,WSDL version 440,2013-10-10 00:10:00,
2013-10-09 20:15:00,47.7,41.8,30.34,SE,135,0.0,1.6,80,0.00,,,0.00,WSDL version 440,2013-10-10 00:15:00,
2013-10-09 20:20:00,47.5,41.6,30.35,SE,135,0.0,1.1,80,0.00,,,0.00,WSDL version 440,2013-10-10 00:20:00,
2013-10-09 20:30:00,47.1,41.3,30.34,SE,135,0.0,0.9,80,0.00,,,0.00,WSDL version 440,2013-10-10 00:30:00,
2013-10-09 20:35:00,47.0,41.2,30.34,SE,135,0.0,0.0,80,0.00,,,0.00,WSDL version 440,2013-10-10 00:35:00,
2013-10-09 20:40:00,46.8,41.3,30.34,SE,135,0.0,0.0,81,0.00,,,0.00,WSDL version 440,2013-10-10 00:40:00,
2013-10-09 20:45:00,46.5,40.9,30.34,SE,135,0.0,0.0,81,0.00,,,0.00,WSDL version 440,2013-10-10 00:45:00,
2013-10-09 20:50:00,46.2,40.9,30.34,SE,135,0.0,0.0,82,0.00,,,0.00,WSDL version 440,2013-10-10 00:50:00,
2013-10-09 20:55:00,46.0,40.7,30.34,SE,135,0.0,0.0,82,0.00,,,0.00,WSDL version 440,2013-10-10 00:55:00,
2013-10-09 21:00:00,45.8,40.7,30.34,SE,135,0.0,0.0,82,0.00,,,0.00,WSDL version 440,2013-10-10 01:00:00,
2013-10-09 21:10:00,45.4,40.6,30.34,SE,135,0.0,0.0,83,0.00,,,0.00,WSDL version 440,2013-10-10 01:10:00,
2013-10-09 21:15:00,45.1,40.6,30.34,SE,135,0.0,0.0,84,0.00,,,0.00,WSDL version 440,2013-10-10 01:15:00,
2013-10-09 21:20:00,44.9,40.5,30.33,SE,135,0.0,0.0,84,0.00,,,0.00,WSDL version 440,2013-10-10 01:20:00,
2013-10-09 21:25:00,44.8,40.4,30.33,SE,135,0.0,0.0,84,0.00,,,0.00,WSDL version 440,2013-10-10 01:25:00,
2013-10-09 21:30:00,44.6,40.2,30.34,SE,135,0.0,0.0,84,0.00,,,0.00,WSDL version 440,2013-10-10 01:30:00,
2013-10-09 21:35:00,44.6,40.3,30.33,SE,135,0.0,0.0,85,0.00,,,0.00,WSDL version 440,2013-10-10 01:35:00,
2013-10-09 21:40:00,44.3,40.3,30.33,SE,135,0.0,0.0,86,0.00,,,0.00,WSDL version 440,2013-10-10 01:40:00,
2013-10-09 21:45:00,44.2,40.2,30.33,SE,135,0.4,1.6,86,0.00,,,0.00,WSDL version 440,2013-10-10 01:45:00,
2013-10-09 21:50:00,44.2,40.5,30.33,SE,135,0.0,1.6,87,0.00,,,0.00,WSDL version 440,2013-10-10 01:50:00,
2013-10-09 21:55:00,44.2,40.6,30.33,WSW,248,1.1,2.0,87,0.00,,,0.00,WSDL version 440,2013-10-10 01:55:00,
2013-10-09 22:00:00,44.1,40.7,30.33,WSW,248,0.3,2.0,88,0.00,,,0.00,WSDL version 440,2013-10-10 02:00:00,
2013-10-09 22:05:00,44.1,40.7,30.33,WSW,248,0.0,1.3,88,0.00,,,0.00,WSDL version 440,2013-10-10 02:05:00,
2013-10-09 22:10:00,44.1,40.7,30.32,WSW,248,0.0,0.0,88,0.00,,,0.00,WSDL version 440,2013-10-10 02:10:00,
2013-10-09 22:15:00,43.8,40.4,30.32,WSW,248,0.0,0.0,88,0.00,,,0.00,WSDL version 440,2013-10-10 02:15:00,
2013-10-09 22:20:00,43.7,40.3,30.32,WSW,248,0.0,0.0,88,0.00,,,0.00,WSDL version 440,2013-10-10 02:20:00,
2013-10-09 22:25:00,43.7,40.3,30.33,WSW,248,0.0,0.0,88,0.00,,,0.00,WSDL version 440,2013-10-10 02:25:00,
2013-10-09 22:30:00,43.7,40.5,30.33,WSW,248,0.0,0.0,89,0.00,,,0.00,WSDL version 440,2013-10-10 02:30:00,
2013-10-09 22:35:00,43.6,40.5,30.33,WSW,248,0.0,0.0,89,0.00,,,0.00,WSDL version 440,2013-10-10 02:35:00,
2013-10-09 22:40:00,43.5,40.5,30.33,WSW,248,0.0,0.0,89,0.00,,,0.00,WSDL version 440,2013-10-10 02:40:00,
2013-10-09 22:45:00,43.5,40.4,30.33,WSW,248,0.0,0.0,89,0.00,,,0.00,WSDL version 440,2013-10-10 02:45:00,
2013-10-09 22:50:00,43.3,40.3,30.33,WSW,248,0.0,0.0,89,0.00,,,0.00,WSDL version 440,2013-10-10 02:50:00,
2013-10-09 23:00:00,43.0,40.0,30.32,WSW,248,0.0,0.0,89,0.00,,,0.00,WSDL version 440,2013-10-10 03:00:00,
2013-10-09 23:05:00,42.9,39.6,30.32,WSW,248,0.0,0.0,88,0.00,,,0.00,WSDL version 440,2013-10-10 03:05:00,
2013-10-09 23:10:00,42.8,39.8,30.32,WSW,248,0.0,0.0,89,0.00,,,0.00,WSDL version 440,2013-10-10 03:10:00,
2013-10-09 23:15:00,42.8,39.7,30.32,WSW,248,0.0,0.0,89,0.00,,,0.00,WSDL version 440,2013-10-10 03:15:00,
2013-10-09 23:20:00,42.7,39.7,30.32,WSW,248,0.0,0.0,89,0.00,,,0.00,WSDL version 440,2013-10-10 03:20:00,
2013-10-09 23:25:00,42.6,39.6,30.32,WSW,248,0.0,0.0,89,0.00,,,0.00,WSDL version 440,2013-10-10 03:25:00,
2013-10-09 23:30:00,42.4,39.5,30.32,WSW,248,0.0,0.0,89,0.00,,,0.00,WSDL version 440,2013-10-10 03:30:00,
2013-10-09 23:35:00,42.5,39.8,30.31,WSW,248,0.0,0.0,90,0.00,,,0.00,WSDL version 440,2013-10-10 03:35:00,
2013-10-09 23:40:00,42.4,39.7,30.31,WSW,248,0.0,0.0,90,0.00,,,0.00,WSDL version 440,2013-10-10 03:40:00,
2013-10-09 23:45:00,42.4,39.7,30.31,WSW,248,0.0,0.0,90,0.00,,,0.00,WSDL version 440,2013-10-10 03:45:00,
2013-10-09 23:50:00,42.2,39.5,30.31,WSW,248,0.0,0.0,90,0.00,,,0.00,WSDL version 440,2013-10-10 03:50:00,
2013-10-09 23:55:00,42.1,39.4,30.31,WSW,248,0.0,0.0,90,0.00,,,0.00,WSDL version 440,2013-10-10 03:55:00,